Location: Home
(42.5358°N, 72.7383°W)
Time: 00:26:50
(UTC-05:00)

Vanguard 3 - Pass Details

Date: 06 December 2021
Orbit: 508 x 3260 km, 33.3° (Epoch: 21 January)

Event Time Altitude Azimuth Distance (km) Brightness Sun altitude
Rises 09:49:21 0° 278° (W) 6,623 11.5 19.9°
Reaches altitude 10° 09:56:21 10° 263° (W) 5,082 11.1 20.5°
Maximum altitude 10:03:50 17° 230° (SW) 3,838 10.9 21.1°
Drops below altitude 10° 10:09:36 10° 195° (SSW) 3,727 11.5 21.5°
Sets 10:13:34 0° 175° (S) 4,231 12.1 21.8°
